Weather reports worldwide

Advertisment
Jersey Airport, United Kingdom (3895): temperature & dewpoint: 05.12.2019 08:00:00 - 11.12.2019 08:00:00 (GMT)Jersey Airport, United Kingdom (3895): temperature -20cm & temperature -100cm: 05.12.2019 08:00:00 - 11.12.2019 08:00:00 (GMT)Jersey Airport, United Kingdom (3895): wind speed & gusts: 05.12.2019 08:00:00 - 11.12.2019 08:00:00 (GMT)Jersey Airport, United Kingdom (3895): wind direction: 05.12.2019 08:00:00 - 11.12.2019 08:00:00 (GMT)Jersey Airport, United Kingdom (3895): reduced air pressure: 05.12.2019 08:00:00 - 11.12.2019 08:00:00 (GMT)Jersey Airport, United Kingdom (3895): visibility: 05.12.2019 08:00:00 - 11.12.2019 08:00:00 (GMT)Jersey Airport, United Kingdom (3895): sunshine duration: 05.12.2019 08:00:00 - 11.12.2019 08:00:00 (GMT)Jersey Airport, United Kingdom (3895): precipitation: 05.12.2019 08:00:00 - 11.12.2019 08:00:00 (GMT)
Date & Time tt [°C] td [°C] tt -20cm [°C] tt -100cm [°C] ff [km/h] ff [kn] fx [km/h] fx [kn] dd ppp [hPa] vv [km] sd [min] rr [mm]
11.12.2019 08:00:00 7,6 5,0 - - 26 14 48 26 SW 1010,5 10 0 0,0
11.12.2019 07:00:00 8,0 4,9 - - 26 14 54 29 WSW 1010,9 14 0 1,6
11.12.2019 06:00:00 7,6 4,5 - - 18 10 46 25 W 1011,3 10 0 0,2
11.12.2019 05:00:00 8,8 3,2 - - 26 14 - - W 1011,5 10 0 0,0
11.12.2019 04:00:00 8,4 3,3 - - 22 12 50 27 W 1012,0 10 0 0,2
11.12.2019 03:00:00 8,7 3,9 - - 26 14 - - W 1012,4 11 0 0,0
11.12.2019 02:00:00 8,5 5,7 - - 24 13 48 26 W 1012,6 10 0 0,0
11.12.2019 01:00:00 8,9 4,8 - - 24 13 - - WNW 1012,5 10 0 0,0
11.12.2019 00:00:00 9,2 5,0 - - 21 11 - - WNW 1012,7 10 - 0,0
10.12.2019 23:00:00 9,3 7,6 - - 24 13 - - W 1012,5 12 0 0,4
10.12.2019 22:00:00 9,1 8,2 - - 26 14 - - W 1012,3 10 0 1,4
10.12.2019 21:00:00 8,2 7,6 - - 22 12 54 29 W 1012,3 8 0 1,8
10.12.2019 20:00:00 9,9 9,2 - - 41 22 68 37 W 1011,4 4,0 0 1,4
10.12.2019 19:00:00 11,1 9,9 - - 44 24 68 37 SSW 1010,5 5 0 0,2
10.12.2019 18:00:00 11,3 9,7 - - 39 21 65 35 S 1011,4 10 0 0,0
10.12.2019 17:00:00 11,3 9,4 - - 44 24 68 37 SSW 1012,2 10 0 0,0
10.12.2019 16:00:00 11,3 9,1 - - 46 25 70 38 SSW 1013,1 10 0 0,0
10.12.2019 15:00:00 11,4 8,7 - - 41 22 70 38 S 1014,0 10 0 0,0
10.12.2019 14:00:00 11,1 8,5 - - 41 22 67 36 S 1015,2 10 0 0,0
10.12.2019 13:00:00 10,7 8,6 - - 29 16 57 31 S 1016,6 10 0 0,0
10.12.2019 12:00:00 9,4 7,9 - - 34 18 52 28 S 1018,4 10 0 0,0
10.12.2019 11:00:00 9,0 7,5 - - 31 17 54 29 S 1020,0 10 0 0,2
10.12.2019 10:00:00 8,5 7,2 - - 26 14 46 25 S 1021,1 7 0 0,2
10.12.2019 09:00:00 8,3 6,4 9,7 10,0 28 15 48 26 S 1021,8 10 0 0,0
10.12.2019 08:00:00 8,2 6,2 - - 28 15 50 27 S 1022,7 10 0 0,0
10.12.2019 07:00:00 8,8 6,4 - - 24 13 - - S 1023,5 10 0 0,0
10.12.2019 06:00:00 8,7 6,2 - - 28 15 - - SSW 1023,9 10 0 0,0
10.12.2019 05:00:00 8,4 5,7 - - 22 12 - - SSW 1024,9 10 0 0,0
10.12.2019 04:00:00 8,1 6,2 - - 21 11 - - SSW 1026,0 10 0 0,0
10.12.2019 03:00:00 7,8 5,0 - - 16 9 - - SSW 1026,3 10 0 0,0
10.12.2019 02:00:00 7,4 4,8 - - 11 6 - - SSW 1026,8 10 0 0,0
10.12.2019 01:00:00 5,0 2,4 - - 11 6 - - S 1027,6 10 0 0,0
10.12.2019 00:00:00 4,5 1,4 - - 5 3 - - S 1027,7 10 - 0,0
09.12.2019 23:00:00 5,8 2,2 - - 8 4 - - NW 1027,6 12 0 0,0
09.12.2019 22:00:00 6,5 2,8 - - 9 5 - - NNW 1027,5 11 0 0,0
09.12.2019 21:00:00 6,3 2,3 - - 8 4 - - NNW 1026,9 10 0 0,0
09.12.2019 20:00:00 7,2 2,4 - - 11 6 - - NW 1026,9 10 0 0,0
09.12.2019 19:00:00 8,2 2,4 - - 13 7 - - NNW 1025,7 10 0 0,0
09.12.2019 18:00:00 8,7 2,3 - - 21 11 - - NW 1025,3 10 0 0,0
09.12.2019 17:00:00 8,7 1,3 - - 22 12 50 27 NW 1024,5 10 0 0,0
09.12.2019 16:00:00 9,3 2,0 - - 28 15 54 29 NW 1023,4 10 6 0,0
09.12.2019 15:00:00 9,9 2,3 - - 31 17 54 29 NW 1022,4 16 24 0,0
09.12.2019 14:00:00 10,0 2,7 - - 35 19 59 32 NW 1021,0 11 30 0,0
09.12.2019 13:00:00 10,5 3,9 - - 35 19 59 32 NW 1019,7 13 24 0,0
09.12.2019 12:00:00 10,3 4,2 - - 29 16 63 34 NW 1018,3 10 24 0,0
09.12.2019 11:00:00 10,3 4,0 - - 46 25 74 40 NW 1017,2 15 24 0,0
09.12.2019 10:00:00 10,3 4,8 - - 46 25 83 45 NW 1015,1 12 6 0,0
09.12.2019 09:00:00 10,3 4,7 10,4 10,0 46 25 85 46 NW 1013,0 10 0 0,0
09.12.2019 08:00:00 10,6 4,8 - - 50 27 94 51 WNW 1010,9 10 0 0,0
09.12.2019 07:00:00 10,5 5,9 - - 55 30 96 52 WNW 1008,4 10 0 0,2
09.12.2019 06:00:00 10,4 6,2 - - 61 33 109 59 WNW 1006,6 5 0 0,0
09.12.2019 05:00:00 10,4 6,4 - - 55 30 94 51 WNW 1005,0 9 0 0,4
09.12.2019 04:00:00 10,6 5,2 - - 57 31 96 52 WNW 1004,0 10 0 0,0
09.12.2019 03:00:00 10,6 5,3 - - 57 31 94 51 WNW 1003,3 10 0 0,2
09.12.2019 02:00:00 9,6 6,8 - - 55 30 96 52 W 1002,7 3,9 0 0,0
09.12.2019 01:00:00 9,5 7,0 - - 54 29 91 49 W 1002,6 8 0 0,2
09.12.2019 00:00:00 9,5 5,7 - - 61 33 106 57 W 1002,8 10 - 0,8
08.12.2019 23:00:00 8,8 6,1 - - 67 36 102 55 W 1003,2 6 0 1,4
08.12.2019 22:00:00 10,3 5,0 - - 59 32 89 48 W 1004,1 10 0 0,0
08.12.2019 21:00:00 9,2 5,0 - - 63 34 93 50 W 1004,7 10 0 0,4
08.12.2019 20:00:00 9,7 5,0 - - 54 29 80 43 W 1005,6 10 0 0,0
08.12.2019 19:00:00 10,0 4,7 - - 54 29 78 42 W 1006,2 10 0 0,0
08.12.2019 18:00:00 9,9 4,2 - - 55 30 80 43 W 1006,4 10 0 0,0
08.12.2019 17:00:00 9,6 4,8 - - 48 26 74 40 W 1006,9 10 0 0,0
08.12.2019 16:00:00 10,1 4,7 - - 52 28 81 44 W 1007,1 8 0 0,2
08.12.2019 15:00:00 9,1 7,5 - - 46 25 80 43 W 1007,4 10 0 1,4
08.12.2019 14:00:00 9,5 6,5 - - 50 27 70 38 W 1008,1 3,1 6 0,2
08.12.2019 13:00:00 11,3 6,9 - - 52 28 67 36 W 1008,7 10 36 0,0
08.12.2019 12:00:00 11,3 6,6 - - 42 23 72 39 W 1009,4 10 18 0,0
08.12.2019 11:00:00 11,5 8,0 - - 42 23 63 34 W 1009,8 7 42 0,0
08.12.2019 10:00:00 11,1 7,3 - - 35 19 59 32 W 1009,6 10 0 0,0
08.12.2019 09:00:00 10,7 6,6 10,2 10,0 41 22 59 32 W 1009,4 10 0 0,0
08.12.2019 08:00:00 10,8 8,2 - - 35 19 57 31 W 1008,8 10 0 0,0
08.12.2019 07:00:00 11,0 9,2 - - 34 18 61 33 W 1008,5 10 0 0,4
08.12.2019 06:00:00 12,1 12,0 - - 41 22 63 34 W 1007,5 3,0 0 0,6
08.12.2019 05:00:00 11,8 11,6 - - 41 22 59 32 SW 1007,3 4,1 0 0,6
08.12.2019 04:00:00 11,2 10,9 - - 39 21 55 30 SW 1007,8 5 0 2,6
08.12.2019 03:00:00 10,7 10,1 - - 39 21 57 31 SSW 1008,7 5 0 2,0
08.12.2019 02:00:00 10,7 9,3 - - 35 19 59 32 SSW 1009,4 10 0 0,2
08.12.2019 01:00:00 10,5 8,4 - - 34 18 52 28 SSW 1010,5 23 0 0,0
08.12.2019 00:00:00 9,9 7,8 - - 28 15 106 57 SSW 1012,3 10 - 0,0
07.12.2019 23:00:00 10,0 7,7 - - 29 16 - - SSW 1013,5 10 0 0,0
07.12.2019 22:00:00 10,0 8,1 - - 21 11 - - SSW 1014,5 10 0 0,0
07.12.2019 21:00:00 10,5 9,3 - - 24 13 - - SSW 1015,0 10 0 0,0
07.12.2019 20:00:00 10,7 8,9 - - 28 15 - - SW 1015,5 10 0 0,0
07.12.2019 19:00:00 10,7 9,0 - - 24 13 - - SSW 1016,0 21 0 0,0
07.12.2019 18:00:00 10,6 8,0 - - 18 10 - - SW 1016,8 10 0 0,0
07.12.2019 17:00:00 9,8 7,9 - - 18 10 - - SW 1016,7 30 0 0,0
07.12.2019 16:00:00 10,6 8,5 - - 21 11 - - SW 1017,0 10 0 0,0
07.12.2019 15:00:00 10,6 8,7 - - 18 10 - - SW 1016,9 10 0 0,0
07.12.2019 14:00:00 10,9 9,1 - - 18 10 - - WSW 1017,0 22 0 0,0
07.12.2019 13:00:00 10,7 9,6 - - 22 12 - - SW 1017,6 15 12 0,0
07.12.2019 12:00:00 11,1 8,8 - - 21 11 - - WSW 1017,6 10 6 0,0
07.12.2019 11:00:00 11,1 8,0 - - 13 7 - - W 1018,3 10 0 0,0
07.12.2019 10:00:00 10,8 8,6 - - 11 6 - - W 1017,9 19 0 0,0
07.12.2019 09:00:00 10,4 9,3 9,7 10,0 9 5 - - W 1017,5 10 0 0,0
07.12.2019 08:00:00 10,3 8,0 - - 16 9 - - WSW 1017,1 10 0 0,0
07.12.2019 07:00:00 10,4 7,2 - - 13 7 - - W 1016,9 10 0 0,0
07.12.2019 06:00:00 10,5 8,0 - - 21 11 - - W 1016,5 10 0 0,0
07.12.2019 05:00:00 10,1 7,9 - - 21 11 - - W 1016,3 10 0 0,0
07.12.2019 04:00:00 10,4 8,1 - - 21 11 - - WNW 1015,7 10 0 0,0
07.12.2019 03:00:00 10,3 8,3 - - 22 12 - - WNW 1015,4 8 0 0,0
07.12.2019 02:00:00 10,5 9,1 - - 18 10 - - W 1015,1 10 0 0,0
07.12.2019 01:00:00 10,3 8,3 - - 26 14 - - WNW 1014,9 10 0 0,0
07.12.2019 00:00:00 10,8 8,2 - - 24 13 - - WNW 1014,6 10 - 0,0
06.12.2019 23:00:00 10,8 9,0 - - 26 14 - - WNW 1014,3 8 0 0,0
06.12.2019 22:00:00 10,6 9,0 - - 28 15 52 28 W 1013,9 10 0 0,2
06.12.2019 21:00:00 10,6 9,1 - - 29 16 48 26 W 1013,4 10 0 0,0
06.12.2019 20:00:00 11,4 10,2 - - 31 17 52 28 W 1012,7 6 0 0,0
06.12.2019 19:00:00 11,4 10,6 - - 28 15 57 31 W 1012,1 10 0 1,2
06.12.2019 18:00:00 11,5 10,4 - - 35 19 59 32 W 1011,3 10 0 0,6
06.12.2019 17:00:00 11,6 10,4 - - 41 22 54 29 W 1010,7 10 0 0,0
06.12.2019 16:00:00 11,6 10,9 - - 39 21 63 34 W 1010,9 10 0 0,2
06.12.2019 15:00:00 11,7 11,6 - - 46 25 63 34 WSW 1010,3 4,0 0 0,4
06.12.2019 14:00:00 11,7 11,5 - - 42 23 63 34 SW 1010,5 3,5 0 0,8
06.12.2019 13:00:00 11,7 10,9 - - 35 19 54 29 SW 1011,4 2,5 0 0,4
06.12.2019 12:00:00 11,7 10,4 - - 34 18 57 31 SW 1011,7 10 0 0,0
06.12.2019 11:00:00 11,4 10,3 - - 37 20 59 32 SW 1012,9 10 0 0,0
06.12.2019 10:00:00 11,2 10,0 - - 34 18 52 28 SSW 1013,6 10 0 0,0
06.12.2019 09:00:00 10,8 10,0 9,0 9,9 34 18 52 28 SW 1014,1 10 0 0,0
06.12.2019 08:00:00 10,5 9,8 - - 34 18 54 29 SW 1014,5 10 0 0,0
06.12.2019 07:00:00 10,3 9,5 - - 31 17 50 27 SW 1015,0 10 0 0,2
06.12.2019 06:00:00 10,2 9,2 - - 29 16 50 27 SW 1015,1 19 0 0,0
06.12.2019 05:00:00 10,0 9,1 - - 34 18 50 27 SW 1015,6 10 0 0,4
06.12.2019 04:00:00 10,0 8,8 - - 35 19 55 30 SW 1016,3 5 0 1,0
06.12.2019 03:00:00 10,0 8,3 - - 37 20 50 27 SW 1016,8 14 0 0,0
06.12.2019 02:00:00 10,0 8,1 - - 34 18 48 26 SW 1017,4 18 0 0,0
06.12.2019 01:00:00 9,8 8,1 - - 35 19 48 26 SW 1017,9 10 0 0,0
06.12.2019 00:00:00 9,6 7,8 - - 29 16 - - SW 1018,9 10 - 0,0
05.12.2019 23:00:00 9,4 7,5 - - 28 15 - - SW 1019,6 10 0 0,0
05.12.2019 22:00:00 9,2 7,3 - - 26 14 - - SW 1020,1 10 0 0,0
05.12.2019 21:00:00 8,9 6,7 - - 26 14 - - SW 1020,9 10 0 0,0
05.12.2019 20:00:00 8,8 6,5 - - 26 14 - - SW 1021,2 10 0 0,0
05.12.2019 19:00:00 9,1 6,4 - - 26 14 - - SW 1021,6 50 0 0,0
05.12.2019 18:00:00 9,1 6,0 - - 22 12 - - SW 1021,5 10 0 0,0
05.12.2019 17:00:00 8,6 5,7 - - 18 10 - - SW 1021,6 10 0 0,0
05.12.2019 16:00:00 8,7 6,0 - - 18 10 - - WSW 1021,8 10 0 0,0
05.12.2019 15:00:00 9,0 5,9 - - 21 11 - - WSW 1022,0 10 18 0,0
05.12.2019 14:00:00 10,0 6,3 - - 16 9 - - SW 1022,5 50 18 0,0
05.12.2019 13:00:00 9,5 6,2 - - 15 8 - - SW 1023,1 10 0 0,0
05.12.2019 12:00:00 9,7 6,3 - - 11 6 - - SW 1023,8 45 12 0,0
05.12.2019 11:00:00 8,5 5,4 - - 9 5 - - SW 1024,2 10 0 0,0
05.12.2019 10:00:00 7,5 5,6 - - 2 1 - - - 1024,4 10 0 0,0
05.12.2019 09:00:00 5,3 3,1 8,7 10,0 4 2 - - S 1024,1 10 12 0,0
05.12.2019 08:00:00 4,5 3,0 - - 2 1 - - W 1023,9 10 0 0,0

tt = temperature
td = dewpoint
tt -20cm = temperature -20cm
tt -100cm = temperature -100cm
ff = wind speed
fx = gusts
dd = wind direction
ppp = reduced air pressure
vv = visibility
sd = sunshine duration
rr = precipitation

Next stations